| time (UTC) | temp C | wind direction | speed KPH | gust KPH | rain 1hr cm | rain 24hr cm | rain mn cm | humidity % | barometer mb |
| 20260510191532 | 11 | 130 | 0.0 | 3.2 | 0.00 | 0.03 | 0.00 | 92 | 1013.5 |
| 20260510190031 | 11 | 129 | 0.0 | 4.8 | 0.00 | 0.03 | 0.00 | 93 | 1013.1 |
| 20260510184527 | 11 | 144 | 1.6 | 3.2 | 0.00 | 0.03 | 0.00 | 93 | 1012.9 |
| 20260510183024 | 11 | 146 | 0.0 | 3.2 | 0.00 | 0.03 | 0.00 | 93 | 1012.6 |
| 20260510181526 | 10 | 149 | 0.0 | 4.8 | 0.00 | 0.03 | 0.00 | 93 | 1012.4 |
| 20260510180023 | 10 | 150 | 0.0 | 1.6 | 0.00 | 0.03 | 0.00 | 93 | 1012.0 |
| 20260510174515 | 10 | 151 | 0.0 | 3.2 | 0.00 | 0.03 | 0.00 | 92 | 1011.6 |
| 20260510173012 | 10 | 150 | 0.0 | 1.6 | 0.00 | 0.03 | 0.00 | 91 | 1011.4 |
| 20260510171511 | 11 | 141 | 0.0 | 1.6 | 0.00 | 0.03 | 0.00 | 90 | 1011.1 |
| 20260510170006 | 11 | 141 | 0.0 | 1.6 | 0.00 | 0.03 | 0.00 | 90 | 1010.9 |
| 20260510164503 | 11 | 141 | 0.0 | 1.6 | 0.00 | 0.03 | 0.00 | 88 | 1010.6 |
| 20260510163100 | 12 | 141 | 0.0 | 3.2 | 0.00 | 0.03 | 0.00 | 87 | 1010.4 |
| 20260510161556 | 12 | 155 | 0.0 | 6.4 | 0.00 | 0.03 | 0.00 | 87 | 1010.0 |
| 20260510160101 | 12 | 153 | 1.6 | 11.3 | 0.00 | 0.03 | 0.00 | 85 | 1009.8 |
| 20260510154553 | 13 | 211 | 1.6 | 8.0 | 0.00 | 0.03 | 0.00 | 84 | 1009.5 |
| 20260510153050 | 13 | 143 | 1.6 | 4.8 | 0.00 | 0.03 | 0.00 | 83 | 1009.2 |
| 20260510151547 | 13 | 205 | 4.8 | 14.5 | 0.00 | 0.03 | 0.00 | 83 | 1009.0 |
| 20260510150046 | 13 | 139 | 1.6 | 8.0 | 0.00 | 0.03 | 0.00 | 84 | 1009.1 |
| 20260510144544 | 13 | 172 | 4.8 | 9.7 | 0.00 | 0.03 | 0.00 | 84 | 1009.2 |
| 20260510143042 | 13 | 132 | 1.6 | 8.0 | 0.00 | 0.03 | 0.00 | 84 | 1009.2 |
| 20260510141540 | 14 | 174 | 3.2 | 12.9 | 0.00 | 0.03 | 0.00 | 84 | 1009.1 |
| 20260510140040 | 14 | 204 | 1.6 | 9.7 | 0.00 | 0.03 | 0.00 | 84 | 1008.9 |
| 20260510134537 | 14 | 184 | 3.2 | 14.5 | 0.00 | 0.03 | 0.00 | 83 | 1008.6 |
| 20260510133035 | 14 | 210 | 4.8 | 16.1 | 0.00 | 0.03 | 0.00 | 84 | 1008.5 |
| 20260510131531 | 14 | 267 | 3.2 | 11.3 | 0.00 | 0.03 | 0.00 | 85 | 1008.3 |
| 20260510130030 | 14 | 143 | 3.2 | 12.9 | 0.00 | 0.03 | 0.00 | 85 | 1008.2 |
| 20260510124525 | 14 | 229 | 4.8 | 16.1 | 0.00 | 0.05 | 0.00 | 86 | 1007.6 |
| 20260510123022 | 14 | 208 | 6.4 | 14.5 | 0.00 | 0.05 | 0.00 | 87 | 1007.4 |
| 20260510121619 | 14 | 198 | 6.4 | 17.7 | 0.00 | 0.05 | 0.00 | 90 | 1007.4 |
| 20260510120019 | 13 | 193 | 3.2 | 9.7 | 0.00 | 0.05 | 0.00 | 93 | 1007.2 |
| 20260510114516 | 14 | 224 | 3.2 | 8.0 | 0.00 | 0.05 | 0.05 | 93 | 1007.1 |
| 20260510113014 | 14 | 191 | 6.4 | 12.9 | 0.00 | 0.05 | 0.05 | 92 | 1007.0 |
| 20260510111513 | 14 | 160 | 3.2 | 9.7 | 0.00 | 0.05 | 0.05 | 91 | 1006.9 |
| 20260510110011 | 14 | 280 | 3.2 | 9.7 | 0.00 | 0.05 | 0.05 | 91 | 1006.8 |
| 20260510104527 | 14 | 289 | 1.6 | 8.0 | 0.00 | 0.05 | 0.05 | 91 | 1006.7 |
| 20260510103010 | 15 | 203 | 3.2 | 9.7 | 0.00 | 0.05 | 0.05 | 90 | 1006.5 |
| 20260510101507 | 15 | 179 | 0.0 | 8.0 | 0.00 | 0.05 | 0.05 | 89 | 1006.4 |
| 20260510100004 | 15 | 176 | 1.6 | 9.7 | 0.00 | 0.05 | 0.05 | 88 | 1006.2 |
| 20260510094503 | 15 | 136 | 1.6 | 6.4 | 0.00 | 0.08 | 0.05 | 88 | 1005.9 |
| 20260510093105 | 15 | 203 | 1.6 | 12.9 | 0.00 | 0.08 | 0.05 | 88 | 1005.8 |
| 20260510091559 | 15 | 213 | 1.6 | 9.7 | 0.00 | 0.08 | 0.05 | 87 | 1005.7 |
| 20260510090157 | 15 | 219 | 3.2 | 12.9 | 0.00 | 0.08 | 0.05 | 86 | 1005.2 |
| 20260510084558 | 15 | 172 | 4.8 | 17.7 | 0.00 | 0.08 | 0.05 | 86 | 1005.2 |
| 20260510083053 | 15 | 156 | 3.2 | 14.5 | 0.00 | 0.08 | 0.05 | 85 | 1004.9 |
| 20260510081557 | 15 | 305 | 3.2 | 14.5 | 0.00 | 0.08 | 0.05 | 85 | 1004.5 |
| 20260510080050 | 15 | 179 | 3.2 | 12.9 | 0.00 | 0.08 | 0.05 | 85 | 1004.4 |
| 20260510074548 | 15 | 191 | 6.4 | 17.7 | 0.00 | 0.08 | 0.05 | 84 | 1004.2 |
| 20260510073049 | 15 | 300 | 6.4 | 17.7 | 0.00 | 0.08 | 0.05 | 83 | 1004.0 |
| 20260510071546 | 15 | 203 | 6.4 | 14.5 | 0.00 | 0.08 | 0.05 | 83 | 1004.0 |
| 20260510070047 | 15 | 224 | 4.8 | 14.5 | 0.00 | 0.08 | 0.05 | 83 | 1003.7 |
| 20260510064543 | 16 | 219 | 6.4 | 16.1 | 0.00 | 0.08 | 0.05 | 82 | 1003.6 |
| 20260510063041 | 16 | 150 | 6.4 | 16.1 | 0.00 | 0.08 | 0.05 | 82 | 1003.4 |
| 20260510061539 | 16 | 224 | 6.4 | 17.7 | 0.00 | 0.08 | 0.05 | 82 | 1003.1 |
| 20260510060037 | 16 | 172 | 3.2 | 16.1 | 0.00 | 0.08 | 0.05 | 81 | 1002.8 |
| 20260510054546 | 16 | 292 | 3.2 | 14.5 | 0.00 | 0.08 | 0.05 | 80 | 1002.5 |
| 20260510053036 | 16 | 163 | 3.2 | 17.7 | 0.00 | 0.08 | 0.05 | 80 | 1002.4 |
| 20260510051536 | 16 | 207 | 4.8 | 12.9 | 0.00 | 0.08 | 0.05 | 79 | 1002.1 |
| 20260510050035 | 16 | 281 | 4.8 | 17.7 | 0.00 | 0.08 | 0.05 | 79 | 1001.9 |
| 20260510044541 | 17 | 156 | 4.8 | 19.3 | 0.00 | 0.08 | 0.05 | 78 | 1002.0 |
| 20260510043032 | 17 | 159 | 4.8 | 19.3 | 0.00 | 0.08 | 0.05 | 77 | 1001.9 |
| 20260510041538 | 17 | 226 | 4.8 | 20.9 | 0.00 | 0.08 | 0.05 | 75 | 1001.8 |
| 20260510040032 | 17 | 255 | 4.8 | 17.7 | 0.00 | 0.08 | 0.05 | 78 | 1001.6 |
| 20260510034530 | 17 | 297 | 11.3 | 24.1 | 0.00 | 0.08 | 0.05 | 76 | 1001.6 |
| 20260510033028 | 17 | 191 | 6.4 | 24.1 | 0.00 | 0.08 | 0.05 | 78 | 1001.6 |
| 20260510031545 | 18 | 233 | 8.0 | 30.6 | 0.00 | 0.08 | 0.05 | 76 | 1001.8 |
| 20260510030033 | 18 | 211 | 11.3 | 24.1 | 0.00 | 0.08 | 0.05 | 74 | 1001.3 |
| 20260510024525 | 18 | 146 | 11.3 | 30.6 | 0.00 | 0.08 | 0.05 | 74 | 1001.3 |
| 20260510023023 | 18 | 200 | 11.3 | 29.0 | 0.00 | 0.08 | 0.05 | 72 | 1001.2 |
| 20260510021528 | 18 | 212 | 9.7 | 29.0 | 0.00 | 0.08 | 0.05 | 74 | 1001.1 |
| 20260510020019 | 18 | 231 | 8.0 | 32.2 | 0.00 | 0.08 | 0.05 | 77 | 1001.3 |
| 20260510014519 | 17 | 224 | 8.0 | 27.4 | 0.00 | 0.08 | 0.05 | 77 | 1001.3 |
| 20260510013015 | 17 | 173 | 4.8 | 22.5 | 0.00 | 0.08 | 0.05 | 77 | 1001.5 |
| 20260510011515 | 18 | 235 | 8.0 | 17.7 | 0.00 | 0.08 | 0.05 | 77 | 1001.6 |
| 20260510010013 | 18 | 284 | 4.8 | 22.5 | 0.00 | 0.08 | 0.05 | 76 | 1001.6 |
| 20260510004512 | 18 | 311 | 6.4 | 20.9 | 0.00 | 0.08 | 0.05 | 76 | 1001.7 |
| 20260510003008 | 17 | 330 | 6.4 | 22.5 | 0.00 | 0.08 | 0.05 | 77 | 1001.8 |
| 20260510001509 | 17 | 271 | 6.4 | 19.3 | 0.00 | 0.08 | 0.05 | 78 | 1002.0 |
| 20260510000012 | 17 | 128 | 9.7 | 17.7 | 0.00 | 0.08 | 0.05 | 76 | 1002.2 |
| 20260509234509 | 17 | 281 | 8.0 | 16.1 | 0.00 | 0.08 | 0.05 | 76 | 1002.2 |
| 20260509233006 | 17 | 155 | 8.0 | 20.9 | 0.00 | 0.08 | 0.05 | 75 | 1002.5 |
| 20260509231502 | 17 | 304 | 9.7 | 20.9 | 0.00 | 0.08 | 0.05 | 77 | 1002.6 |
| 20260509230100 | 17 | 191 | 3.2 | 14.5 | 0.00 | 0.08 | 0.05 | 79 | 1003.0 |
| 20260509224559 | 17 | 260 | 4.8 | 17.7 | 0.00 | 0.08 | 0.05 | 79 | 1002.8 |
| 20260509223056 | 16 | 293 | 8.0 | 22.5 | 0.00 | 0.08 | 0.05 | 80 | 1002.8 |
| 20260509221553 | 16 | 200 | 3.2 | 20.9 | 0.00 | 0.08 | 0.05 | 81 | 1002.9 |
| 20260509220052 | 16 | 259 | 9.7 | 22.5 | 0.00 | 0.08 | 0.05 | 81 | 1002.9 |
| 20260509214548 | 15 | 152 | 6.4 | 17.7 | 0.00 | 0.08 | 0.05 | 83 | 1002.8 |
| 20260509213046 | 15 | 218 | 4.8 | 14.5 | 0.00 | 0.08 | 0.05 | 84 | 1002.8 |
| 20260509211544 | 15 | 321 | 4.8 | 16.1 | 0.03 | 0.08 | 0.05 | 85 | 1002.9 |
| 20260509210051 | 14 | 141 | 4.8 | 16.1 | 0.03 | 0.08 | 0.05 | 85 | 1002.9 |
| 20260509204538 | 14 | 172 | 4.8 | 11.3 | 0.03 | 0.08 | 0.05 | 87 | 1002.9 |
| 20260509203035 | 13 | 245 | 3.2 | 9.7 | 0.03 | 0.08 | 0.05 | 89 | 1002.9 |
| 20260509201534 | 13 | 160 | 3.2 | 11.3 | 0.00 | 0.05 | 0.05 | 90 | 1002.8 |
| 20260509200033 | 13 | 200 | 3.2 | 11.3 | 0.00 | 0.05 | 0.05 | 91 | 1002.8 |
| 20260509194534 | 12 | 184 | 3.2 | 12.9 | 0.00 | 0.05 | 0.05 | 91 | 1002.6 |
| 20260509193032 | 12 | 215 | 1.6 | 6.4 | 0.00 | 0.05 | 0.05 | 91 | 1002.7 |